Lid_Strength_Index
13 13 13 13 13 13 15 14 17 15 15 12 10 10 9 7 7 7 6 6 5 5 5 5 4 4 5 3 3 3 3 3 3 2 2 3 4 4 4 5 5 5 6 7
15 13 13 14 13 13 13 13 14 13 15 10 10 9 9 8 8 8 7 6 5 5 4 5 4 4 5 6 3 3 4 4 2 4 5 5 4 4 5 6 7 8 9 9
17 13 14 17 15 15 14 13 13 16 14 11 12 11 11 10 8 8 8 7 6 5 5 4 4 5 4 6 4 4 4 4 4 5 5 5 5 6 7 8 9 10 10 10
17 17 23 15 13 13 14 13 12 13 12 11 11 11 11 10 9 9 7 7 6 5 5 4 4 4 4 3 3 3 4 5 5 5 5 5 6 8 9 9 10 11 12 12
18 20 16 15 14 15 16 16 12 14 13 12 12 12 12 9 7 7 7 6 4 4 4 4 4 3 3 4 4 5 5 5 6 6 7 7 9 9 9 10 10 12 12 13
16 19 20 16 13 12 13 18 12 14 14 14 13 16 14 9 8 8 7 7 6 4 4 4 4 3 4 4 5 5 5 5 6 6 7 9 9 10 10 10 12 12 13 14
17 18 15 13 13 12 20 18 14 13 14 13 15 13 11 10 9 8 8 7 4 4 5 5 4 5 5 6 7 6 6 6 7 7 8 9 10 10 11 12 12 12 14 14
17 18 19 12 14 18 15 14 13 13 14 14 12 12 11 10 9 8 5 4 4 5 6 6 6 7 7 8 7 6 6 7 8 8 8 9 10 11 12 13 14 15 14 15
17 17 12 12 14 13 13 15 14 15 13 10 11 12 11 9 7 6 5 6 6 7 7 7 7 8 9 9 9 8 7 8 9 9 9 10 11 12 13 14 14 15 15 15
16 14 13 12 12 13 13 14 14 13 10 9 9 8 7 6 5 6 6 7 7 7 8 9 9 8 9 9 9 9 9 9 9 10 11 11 12 12 13 14 14 15 14 14
15 13 13 12 13 14 12 12 14 12 11 10 9 8 8 7 7 7 8 8 7 8 9 10 9 9 8 8 9 10 10 11 13 13 15 16 14 14 13 13 13 12 13 15
17 14 14 15 13 12 12 12 13 12 12 10 9 8 7 8 8 8 8 8 8 9 10 10 9 10 8 9 11 13 12 13 14 15 15 15 16 16 14 14 14 15 14 15
13 12 11 12 12 11 11 11 11 11 11 11 9 8 8 8 8 8 9 8 9 9 9 10 10 10 9 10 11 12 13 14 14 15 15 16 16 17 18 16 14 15 14 14
10 11 12 12 12 11 10 10 10 10 10 11 10 8 8 9 8 9 10 9 9 10 10 11 11 12 11 11 12 13 13 13 13 14 14 15 15 16 17 17 17 17 14 14
10 9 10 10 11 11 10 10 11 11 11 12 10 10 9 10 11 11 10 11 11 11 11 12 13 13 11 12 12 13 13 13 13 13 14 14 15 16 16 16 16 16 15 13
9 9 9 10 11 12 11 11 12 11 11 11 12 11 11 11 11 11 11 11 12 12 12 12 13 12 11 12 12 12 12 13 13 13 14 14 15 15 15 14 13 13 13 14
10 10 10 10 11 12 12 11 11 11 11 11 11 11 11 11 11 12 12 10 11 11 11 11 11 10 11 11 12 12 12 12 12 12 13 13 14 14 13 12 12 12 13 13
8 8 8 9 10 11 11 12 11 12 11 11 11 11 12 12 12 12 12 12 11 11 11 11 10 10 10 10 11 11 11 11 12 12 11 10 11 11 11 11 12 13 13 13
8 8 9 8 8 10 10 11 11 12 12 11 11 12 12 12 11 12 12 13 12 12 11 10 11 10 11 11 11 11 11 11 11 10 9 10 11 11 11 12 12 12 12 11
7 9 8 9 8 8 10 10 11 11 11 11 11 12 12 12 11 12 12 14 12 12 10 10 10 10 11 11 11 10 11 10 9 9 9 10 11 11 12 12 12 11 11 11
8 8 9 9 9 8 8 9 9 10 10 10 11 12 12 11 11 10 11 12 11 11 11 11 11 12 11 11 9 8 8 9 10 10 10 10 10 11 11 11 10 10 10 10
8 9 9 9 9 9 8 8 9 9 9 9 9 10 11 11 11 11 10 12 11 12 12 13 13 14 11 9 8 8 8 9 9 10 10 11 11 11 11 11 11 10 10 10
8 8 8 9 9 10 9 9 9 9 9 9 9 10 10 10 10 11 12 10 10 12 11 12 13 12 11 8 8 8 8 9 9 9 10 10 10 11 11 10 10 9 10 10
8 8 8 8 9 9 10 9 9 8 8 7 8 9 9 10 10 10 10 10 10 10 10 11 12 13 10 8 8 8 8 9 9 9 9 10 10 10 10 10 10 10 10 10
7 7 8 8 9 9 8 8 8 8 8 8 8 7 8 8 9 10 10 10 10 9 10 12 12 11 8 8 8 9 9 9 9 9 8 9 10 9 10 10 10 10 9 9
8 8 8 8 9 9 8 8 9 8 8 8 8 8 8 8 9 9 9 9 9 9 10 9 9 8 8 8 8 8 9 9 8 8 8 9 9 9 9 10 9 9 8 8
7 8 8 9 8 8 9 9 8 8 8 8 8 7 8 8 8 9 9 9 10 9 9 9 9 9 8 8 8 8 9 9 9 8 8 8 8 8 9 8 8 8 8 8